Location: Bühlhof
(48.7849°N, 8.6361°E)
Time: 23:40:11
(UTC+00:00)

Cosmos 1980 Rocket - Pass Details

Date: 19 January 2026
Orbit: 829 x 847 km, 71.0° (Epoch: 9 February)

Event Time Altitude Azimuth Distance (km) Brightness Sun altitude
Rises 18:16:50 0° 333° (NNW) 3,384 5.6 -21.6°
Reaches altitude 10° 18:19:20 10° 338° (NNW) 2,447 4.8 -22.0°
Maximum altitude 18:24:52 58° 57° (ENE) 971 2.2 -23.0°
Enters shadow 18:25:30 54° 85° (E) 1,005 2.2 -23.1°
